Garnett Industrial Airport (K68)
Garnett, KS
Field Elevation: 989
Lat: 38°16.64N  Long: 95°12.91W
CTAF/Unicom Freq: 122.8000
   
     For Weather-by-Phone, call 785-448-3254
Weather Advisories
11/1/2014 08:34 Z
Altimeter 30.47" Hg
Wind 230° @ 0 KT
Gusts --
Visibility 10 SM
Temperature -4° C (25° F)
Dewpoint -5° C (23° F)
Relative Humidity 94%
Density Altitude --
Condensation Altitude 1,500 feet
  Wind and Runways
Indicated Runway = 19
History
 
 
More Info
All DigiWx sites map
NOAA Forecast
 
Airport IQ 5010
(FLV) Sherman Airfield
(GRE) Greenville
 
about DigiWx
 
FAA Disclaimer: The data displayed is for advisory purposes only and is not to be used for flight planning or operations. For official data, please call 785-448-3254 to hear the current automated AWOS voice message.
  METAR K68 010834Z AUTO 23000KT 10SM M04/M05 A3047